Tracking 31027 objects as of 19-Jul-2025
HD Live streaming from Space Station
objects crossing your sky now

COSMOS 374 DEB

Track COSMOS 374 DEB now!
10-day predictions


NORAD ID: 4617
Int'l Code: 1970-089D
Perigee: 552.6 km
Apogee: 990.9 km
Inclination: 62.9 °
Period: 100.1 minutes
Semi major axis: 7142 km
RCS: 0.3477 m2 (medium)
Launch date: October 23, 1970
Source: Commonwealth of Independent States (former USSR) (CIS)
Launch site: TYURATAM MISSILE AND SPACE COMPLEX (TTMTR)

Note: This is SATELLITE DEBRIS
Your satellite tracking list
PRISMA
Track 1 satellite(s)




NASA's NSSDC Master Catalog

Two Line Element Set (TLE):
1 04617U 70089D   25199.45786829  .00001919  00000-0  39442-3 0  9992
2 04617  62.9443 310.1888 0306791 290.3429  66.4925 14.38147706719912
Source of the keplerian elements: AFSPC